Regional Weather Roundup
Issued by NWS

Home | Current Version | Previous Version | Text Only | Print | Product List | Glossary Off
Versions: 1 2 3 4 5 6 7 8 9 10 11 12 13 14 15 16 17 18 19 20 21 22 23 24 25 26 27 28 29 30 31 32 33 34 35 36 37 38 39 40 41 42 43 44 45 46 47 48 49 50

717
ASUS44 KLIX 181605
RWRLA
LOUISIANA WEATHER ROUNDUP
NATIONAL WEATHER SERVICE NEW ORLEANS LA
1100 AM CDT FRI APR 18 2014

NOTE: "FAIR" INDICATES FEW OR NO CLOUDS BELOW 12,000 FEET WITH NO
      SIGNIFICANT WEATHER AND/OR OBSTRUCTIONS TO VISIBILITY.
      SKY/WX - SKY CONDITION AND SIGNIFICANT WEATHER.
      TMP - AIR TEMPERATURE.    DP   - DEWPOINT TEMPERATURE.
      RH  - RELATIVE HUMIDITY.  PRES - PRESSURE.
      HX  - HEAT INDEX.         WCI  - WIND CHILL INDEX.

*  THESE STATIONS ARE NOT NWS OR FAA STATIONS AND ARE NOT UNDER
   NWS QUALITY CONTROL.

LAZ040-048-061>063-065-066-069-181700-
SOUTHEAST LOUISIANA

CITY           SKY/WX    TMP DP  RH WIND       PRES   REMARKS
N.O. AUDUBON     N/A     68 N/A N/A MISG        N/A
N.O. INTL ARPT PTSUNNY   68  61  78 N12       30.11S
N.O. LAKEFRONT CLOUDY    68  62  81 N12       30.11S
N.O. DOWNTOWN* CLOUDY    66  57  72 N10       30.11S
SLIDELL        CLOUDY    67  60  78 N13       30.10S
BATON ROUGE    MOSUNNY   73  59  61 NE12      30.13S
BOOTHVILLE     CLOUDY    63  60  90 N12G22    30.06F
BELLE CHASSE   CLOUDY    67  59  75 N8G16     30.09R
BOGALUSA*        N/A     66  58  75 NE12      30.14S
GALLIANO*      CLOUDY    68  62  79 N14       30.09F
NEW ROADS*     FAIR      70  59  69 N7        30.14F
GONZALES*      FAIR      71  60  68 N9        30.11F
HAMMOND*       MOSUNNY   75  57  53 N10       30.13S
HOUMA*         PTSUNNY   68  57  68 N14       30.11R
PORT FOURCHON* CLOUDY    66  61  82 N16G22    30.10S

$$

LAZ041-044-053-054-181700-
SOUTHWEST LOUISIANA

CITY           SKY/WX    TMP DP  RH WIND       PRES   REMARKS
LAKE CHARLES   PTSUNNY   69  57  65 N8        30.16S
LAFAYETTE      PTSUNNY   69  59  70 N8        30.15R
PATTERSON      MOSUNNY   72  61  68 NE14      30.14
SALT POINT       N/A     73  60  63 VRB5      30.10S
NEW IBERIA     CLOUDY    68  59  73 N10       30.14R
CHENAULT AIRPK MOSUNNY   68  57  68 N8        30.17F

$$

LAZ027-028-181700-
CENTRAL LOUISIANA

CITY           SKY/WX    TMP DP  RH WIND       PRES   REMARKS
FORT POLK      MOSUNNY   66  55  67 NE10      30.18S
ALEXANDRIA INT CLOUDY    59  56  89 N5        30.17F
ALEXANDRIA     CLOUDY    62  56  80 N7        30.18S

$$

LAZ001-002-181700-
NORTHWEST LOUISIANA

CITY           SKY/WX    TMP DP  RH WIND       PRES   REMARKS
SHREVEPORT     MOSUNNY   69  56  62 N9        30.21S
BARKSDALE AFB  MOSUNNY   67  54  61 N7        30.21S
DTN SHREVEPORT SUNNY     66  55  67 N8        30.22S

$$

LAZ014-016-181700-
NORTHEAST LOUISIANA

CITY           SKY/WX    TMP DP  RH WIND       PRES   REMARKS
MONROE         CLOUDY    64  55  72 NW8       30.21R
TALLULAH       MOSUNNY   67  57  70 N6        30.19F

$$




USA.gov is the U.S. government's official web portal to all federal, state and local government web resources and services.